Regional Weather Roundup
Issued by NWS

Home | Current Version | Previous Version | Text Only | Print | Product List | Glossary Off
Versions: 1 2 3 4 5 6 7 8 9 10 11 12 13 14 15 16 17 18 19 20 21 22 23 24 25 26 27 28 29 30 31 32 33 34 35 36 37 38 39 40 41 42 43 44 45 46 47 48 49 50

000
ASUS43 KFSD 300802
RWRSD

WEATHER ROUNDUP FOR SOUTH DAKOTA
NATIONAL WEATHER SERVICE SIOUX FALLS SD
300 AM CDT TUE JUN 30 2015

NOTE: "FAIR" INDICATES FEW OR NO CLOUDS BELOW 12,000 FEET WITH NO
SIGNIFICANT WEATHER AND/OR OBSTRUCTIONS TO VISIBILITY.


SDZ001>005-009-010-012>017-300900-
NORTHWEST AND NORTH CENTRAL SOUTH DAKOTA

CITY           SKY/WX    TMP DP  RH WIND       PRES   REMARKS
BUFFALO          N/A     68  59  73 CALM      29.90F
FAITH            N/A     71  59  65 CALM      29.92S
MOBRIDGE       MOCLDY    72  63  73 E8        29.91R
$$

SDZ012>016-024>037-041>051-057-063-072>074-300900-
SOUTHWEST AND SOUTH CENTRAL SOUTH DAKOTA

CITY           SKY/WX    TMP DP  RH WIND       PRES   REMARKS
RAPID CTY ARPT CLEAR     71  56  58 SW9       29.99F
PIERRE         MOCLDY    68  61  78 NE12      29.90S
CUSTER         PTCLDY    58  51  78 W3        30.19F
ELLSWORTH AFB  CLEAR     70  57  63 SW5       29.98F
PHILIP         MOCLDY    68  64  87 W6        29.91F
PINE RIDGE     PTCLDY    62  56  80 W3        30.03F
WINNER         FAIR      75  55  49 S6        29.92F
$$

SDZ004>011-016>023-039-040-300900-
NORTHEAST SOUTH DAKOTA

CITY           SKY/WX    TMP DP  RH WIND       PRES   REMARKS
ABERDEEN       MOCLDY    65  61  87 CALM      29.94S
WATERTOWN      PTCLDY    63  60  90 N3        29.94R
BROOKINGS      PTCLDY    61  55  82 W3        29.95R
SISSETON         N/A     62  60  93 N6        29.91S
$$

SDZ017-020-022-023-036>040-048>070-300900-
SOUTHEAST SOUTH DAKOTA

CITY           SKY/WX    TMP DP  RH WIND       PRES   REMARKS
SIOUX FALLS    CLOUDY    65  62  90 CALM      29.92F
HURON          CLOUDY    69  64  84 W7        29.95R
CHAMBERLAIN    MOCLDY    71  63  76 NE6       29.93R
MITCHELL       MOCLDY    69  65  86 CALM      29.93R
YANKTON        CLEAR     64  57  77 NE3       29.90S
$$

ABBREVIATIONS USED IN REMARKS
   TC - TEMPERATURE IN CELSIUS
  WCI - WIND CHILL INDEX
   HX - HEAT INDEX
  VSB - VISIBILITY



USA.gov is the U.S. government's official web portal to all federal, state and local government web resources and services.